Tracking 28794 objects as of 19-Apr-2024
HD Live streaming from Space Station
objects crossing your sky now

SL-8 DEB

Track SL-8 DEB now!
10-day predictions


NORAD ID: 39695
Int'l Code: 1991-009DJ
Perigee: 1,494.0 km
Apogee: 1,716.5 km
Inclination: 74.1 °
Period: 118.2 minutes
Semi major axis: 7976 km
RCS: 0.0051 m2 (small)
Launch date: February 12, 1991
Source: Commonwealth of Independent States (former USSR) (CIS)
Launch site: PLESETSK MISSILE AND SPACE COMPLEX (PKMTR)

Note: This is SATELLITE DEBRIS
Your satellite tracking list
Your tracking list is empty




NASA's NSSDC Master Catalog

Two Line Element Set (TLE):
1 39695U 91009DJ  24107.49362391  .00000117  00000-0  12536-2 0  9990
2 39695  74.0626 180.4260 0139474  15.2879 345.2304 12.18713064195032
Source of the keplerian elements: AFSPC